Starlink 2508

decayed
NORAD ID: 48456 Int'l Des: 2021-040 Owner: SPXS Country: US Constellation: starlink
LEOCIRCULAR
Gruppe

Über Starlink 2508

Beschreibung wird geladen...

Höhenverlauf

Altitude vs Time

uPlot chart will show altitude changes over time

Zweizeiliger Elementsatz

1 48456U 21040AE 24226.21103635 .20148693 11980-4 56285-2 0 9995
2 48456 53.0322 156.4994 0001681 173.9370 346.1409 16.27090294181904
Epoch: 13. Aug. 2024 • Age: 11703 hours

Aktueller Status

Position data unavailable
Startdatum 9. Mai 2021
Alter 4.5 years
Verglühungsdatum 13. Aug. 2024
Typ internet

Technische Details

Klassifizierung Payload
Masse 260.00 kg
Trockenmasse 248.00 kg
Gesamtmasse 260.00 kg
Länge 0.20 m
Durchmesser 2.80 m
Spannweite 9.00 m
Form Box + pan
Hersteller SPXS
Bus-Typ Starlink
Phasenstatus Reentered
Besitzer/Staat SPXS/US

Große Konstellationen

Loading constellations...